Flag for Germany Weather past 2 weeks in Saalfeld/Saale, Thuringia, Germany

Now
46 °F

Clear.


Feels Like: 42 °F
Forecast: 34 / 49 °F
Wind: 8 mph from Southwest

Location: Erfurt-Bindersleben


UV Index: 0 (Low)

Visibility: 10 mi


Pressure: 29.92 "Hg

Humidity: 46%

Dew point: 27 °F

Location of Saalfeld/SaaleLocation

Historic Weather in Saalfeld/Saale

°F

Saalfeld/Saale temperature yesterday

Maximum temperature yesterday: 50 °F (at 2:50 PM)
Minimum temperature yesterday: 34 °F (at 7:20 AM)
Average temperature yesterday: 43 °F

Past Weeks' High & Low Weather Summary

 TemperatureHumidityPressure
High70 °F (Apr 3, 2:50 PM)100% (Apr 5, 1:20 AM)30.42 "Hg (Apr 5, 1:20 AM)
Low30 °F (Apr 17, 6:50 AM)31% (Apr 17, 4:50 PM)29.65 "Hg (Apr 3, 6:20 AM)
Average50 °F74%30.02 "Hg
* Reported Apr 2 10:50 PM — Apr 17 10:20 PM, Saalfeld/Saale, Weather by CustomWeather, © 2014

Note: Actual official high and low records may vary slightly from our data, if they occured in-between our weather recording intervals... More about our weather records

Advertising

Historic Weather Conditions — Data for Previous 24 hours

 ConditionsComfort  
Time TempWeatherWind HumidityBarometerVisibility
10:20 PM
Apr 17
48 °FClear.8 mph43%29.92 "Hg10 mi
9:50 PM46 °FClear.8 mph46%29.92 "Hg10 mi
9:20 PM46 °FClear.10 mph46%29.92 "Hg10 mi
8:50 PM50 °FSunny.12 mph37%29.95 "Hg10 mi
8:20 PM50 °FSunny.13 mph37%29.95 "Hg10 mi
7:50 PM50 °FSunny.10 mph40%29.98 "Hg10 mi
6:50 PM55 °FSunny.10 mph33%30.01 "Hg10 mi
6:20 PM55 °FSunny.13 mph31%30.01 "Hg10 mi
5:50 PM55 °FSunny.12 mph33%30.01 "Hg10 mi
5:20 PM57 °FSunny.10 mph33%30.04 "Hg10 mi
4:50 PM57 °FSunny.9 mph31%30.04 "Hg10 mi
4:20 PM55 °FSunny.10 mph33%30.07 "Hg10 mi
3:50 PM55 °FSunny.10 mph38%30.07 "Hg10 mi
3:20 PM55 °FSunny.9 mph33%30.09 "Hg10 mi
2:50 PM54 °FSunny.7 mph33%30.12 "Hg10 mi
2:20 PM54 °FSunny.7 mph35%30.15 "Hg10 mi
1:50 PM52 °FPassing clouds.6 mph38%30.18 "HgN/A
1:20 PM52 °FSunny.7 mph35%30.18 "Hg10 mi
12:50 PM52 °FPassing clouds.7 mph35%30.21 "HgN/A
12:20 PM50 °FSunny.8 mph32%30.21 "Hg10 mi
11:50 AM50 °FPassing clouds.6 mph37%30.24 "HgN/A
11:20 AM50 °FSunny.8 mph37%30.27 "Hg10 mi
10:50 AM50 °FPassing clouds.7 mph37%30.27 "HgN/A
10:20 AM48 °FSunny.8 mph43%30.27 "Hg10 mi
9:20 AM45 °FSunny.8 mph53%30.30 "Hg10 mi
8:50 AM41 °FSunny.8 mph61%30.30 "Hg10 mi
8:20 AM37 °FSunny.8 mph70%30.30 "Hg10 mi
7:50 AM36 °FSunny.8 mph75%30.30 "Hg10 mi
7:20 AM34 °FSunny.8 mph81%30.30 "Hg10 mi
6:50 AM30 °FClear.8 mph86%30.30 "Hg10 mi
6:20 AM32 °FClear.8 mph75%30.30 "Hg10 mi
5:50 AM34 °FClear.9 mph75%30.30 "Hg10 mi
5:20 AM32 °FClear.9 mph80%30.33 "Hg10 mi
4:50 AM32 °FClear.9 mph80%30.33 "Hg10 mi
4:20 AM32 °FClear.9 mph80%30.33 "Hg10 mi
3:50 AM34 °FClear.9 mph75%30.33 "Hg10 mi
3:20 AM32 °FClear.9 mph80%30.36 "Hg10 mi
2:50 AM32 °FClear.9 mph75%30.36 "Hg10 mi
2:20 AM32 °FClear.9 mph75%30.36 "Hg10 mi
1:50 AM34 °FClear.9 mph75%30.36 "Hg10 mi
1:20 AM32 °FClear.8 mph75%30.39 "Hg10 mi
12:50 AM36 °FClear.8 mph70%30.39 "Hg10 mi
12:20 AM36 °FClear.9 mph70%30.39 "Hg10 mi
11:50 PM
Apr 16
37 °FClear.7 mph60%30.39 "Hg10 mi
11:20 PM39 °FClear.5 mph56%30.39 "Hg10 mi
Weather by CustomWeather, © 2014

See weather overview